Vertical_Velocity
-22 4 32 37 -2 -8 -2 -9 4 16 1 -12 -3 -3 -2 -8 3 3 -0 -2 7 -2 -4 -2 -2 -1 -12 3 -4 4 -6 10 8 -5 1 2 1 4 4 3 -2 1 3 -8
-9 18 -11 -2 -4 -9 -2 -5 14 -8 -14 -9 19 12 -9 -8 3 3 -3 -2 0 -3 -2 -3 2 5 2 1 2 0 3 2 2 -4 3 2 6 7 5 6 -0 -2 -5 -6
10 11 -2 -8 -7 -2 11 -2 2 -3 3 -5 -8 22 -9 0 -5 -0 3 2 -2 -6 -3 1 3 1 -1 1 1 1 -0 -2 2 6 -2 1 1 -1 -3 -1 7 3 2 2
3 -3 -4 -2 3 -5 12 -3 -4 -5 2 4 7 -7 5 -9 -1 5 3 6 2 -2 -5 -3 -2 -0 1 1 0 -1 1 -2 0 2 2 2 1 1 2 2 1 -2 5 -5
8 2 2 12 -2 -7 19 -5 -1 -1 -2 3 9 1 27 -5 5 -2 1 -2 -2 0 -1 -1 -1 2 2 2 1 0 -1 -6 -9 -1 0 0 -1 2 2 3 -1 5 -2 4
-3 -5 -7 -5 -6 -4 -5 -7 -2 -2 -2 9 -11 16 24 1 -1 6 -4 -1 -0 -0 4 1 1 -3 -14 -7 -4 1 0 2 2 -8 -4 -4 -4 -4 -2 -1 1 -3 -1 -2
-2 -1 -9 -5 4 -10 6 -3 -3 3 10 -1 14 -3 7 -2 11 5 -3 -2 1 0 3 5 2 4 1 -3 -2 -3 -2 2 1 2 -0 -6 -6 -3 -4 -3 -6 -3 -2 -5
4 14 7 -5 -4 -3 -1 -3 6 2 1 -0 10 -2 13 -12 -3 -3 0 1 3 2 0 3 -0 -2 -0 -2 -3 -2 -4 -3 -3 -4 -2 -2 4 -1 1 -1 -5 -2 1 0
2 4 -4 -3 -3 -4 -3 10 -7 -2 -1 -0 -7 5 10 6 2 3 3 1 5 -4 -6 -2 -2 -4 -8 -1 2 1 -1 1 1 2 0 -0 -2 -1 2 2 -0 -2 -1 2
-4 8 -3 -7 -6 -7 -6 -8 2 7 -1 -1 -2 9 8 -1 -3 -4 4 3 7 2 -1 4 -2 -3 -4 -3 -3 -4 -4 -0 -3 -5 -4 -0 -1 -1 0 1 -3 -1 -4 -2
-5 -4 1 -2 -1 -1 7 16 -3 5 6 1 0 5 3 11 15 22 38 11 6 1 -3 -4 -8 -0 -2 -2 -4 -2 -8 -5 -3 -2 -1 -1 2 2 1 -2 -0 0 -4 -5
-2 -3 -6 6 -6 -4 -4 -2 -0 2 -5 2 9 -29 13 -6 9 3 -7 -6 -4 -1 11 2 -1 -2 -2 0 -5 -5 -6 -5 -1 1 -2 -4 -5 -6 3 2 -1 5 -1 1
-2 -1 -1 13 -3 -8 -4 3 -2 -4 -3 -6 7 -18 1 28 -12 -3 -4 -13 -3 -2 10 7 -4 -4 -3 -0 2 -1 -3 3 -1 -2 1 5 -1 1 2 0 -1 -0 -2 -1
-2 -2 -0 -1 4 3 -3 -2 2 7 12 -4 -10 -15 -13 28 42 -1 -3 -2 3 11 -4 -5 -0 -4 -2 5 2 1 3 0 -3 0 -3 -4 -10 -4 0 2 0 1 2 -1
-3 -4 0 -3 -2 -1 0 -2 0 7 -3 18 -10 9 10 -5 -4 9 7 1 -5 -5 0 2 9 4 1 -1 -2 2 -1 -3 -3 -2 -1 6 -14 -7 -4 3 -0 -2 1 -2
-3 -2 -2 -6 1 1 -11 4 -4 7 -3 9 8 -5 -5 8 18 -2 -4 2 2 -7 3 -0 1 -1 -4 -5 -3 -2 -2 -3 -0 -3 -7 -7 -6 -5 2 -5 -3 -3 -1 0
-3 -1 -3 -3 -3 -6 -0 -2 -0 -1 -1 0 -1 4 14 -0 -7 4 -10 -5 -4 -6 -5 -2 -4 -2 -2 -5 -4 -3 -4 -9 -11 -1 -0 6 -7 -5 2 -1 -3 -1 0 -0
-3 -1 -2 -4 -3 -3 6 6 -2 -0 3 4 -5 13 6 4 -3 -7 -11 -7 -4 -6 -2 -1 -2 1 -2 -0 -4 -5 18 2 -4 -8 -3 5 -8 -1 0 -6 2 -2 1 3
-1 0 -3 -1 -0 -11 -4 3 -8 -8 -9 4 9 -0 -9 -0 -4 0 -0 -0 -3 -0 2 0 -4 -3 -3 -2 1 -6 -5 1 10 -7 22 6 32 -7 -4 -5 2 1 2 1
1 -4 0 -2 -2 -1 3 13 -1 2 -0 6 -7 -6 2 -1 -2 -1 -4 -3 1 -2 -4 -9 -3 3 0 6 -1 -0 2 10 12 -6 46 5 -7 19 -2 -8 -2 6 -1 -1
-1 -1 -1 0 -1 -10 2 1 -2 2 -3 -14 1 1 -5 -4 -3 -4 -3 -1 -7 -9 -0 -1 -3 -4 -3 -5 1 -4 -5 6 -12 3 39 8 -9 19 -6 -4 4 -3 -2 -2
-4 -2 -2 0 -2 -6 -7 1 -6 2 7 -4 -0 -0 -1 -2 -1 -1 -4 -5 -5 -1 -2 -1 -2 -0 -2 -6 -3 -4 1 -1 -19 -4 6 5 2 4 1 -2 4 -5 1 1
9 -8 -7 -9 -12 -3 34 -6 -4 2 2 -1 -0 3 -6 -3 -3 -6 -6 -4 -1 -3 -4 -2 -5 -9 0 -6 6 4 2 -3 -15 -2 -2 -4 -1 1 -2 1 -4 -2 2 0
-4 3 5 9 -7 -2 2 -8 1 0 -0 -3 1 -4 -1 -0 -1 -2 -3 -1 1 2 -1 -2 -3 -4 -5 1 -4 4 -4 -5 7 -3 6 13 -5 -2 0 3 -3 -1 -0 1
-2 1 3 -4 5 13 -7 0 2 -3 9 -4 -4 -1 -3 0 -1 -2 -2 -2 -2 -4 -4 0 -3 -1 -1 1 -3 2 -3 -2 -0 -2 -0 -1 -0 -4 2 -3 -2 1 1 -1
9 4 -2 -2 -5 2 1 -4 -7 3 1 1 -0 2 0 -4 -3 -2 -1 -2 -5 -6 -5 -4 -1 4 3 2 3 -2 -3 -1 -2 -2 -2 -1 -2 -0 -1 -2 0 -1 0 1
Height
3149 3151 3152 3152 3150 3152 3152 3151 3152 3154 3153 3155 3156 3157 3155 3158 3159 3159 3159 3160 3161 3158 3158 3156 3156 3156 3157 3159 3159 3161 3158 3159 3157 3154 3152 3151 3148 3145 3143 3140 3135 3134 3130 3129
3152 3151 3150 3151 3150 3152 3153 3153 3153 3153 3154 3154 3155 3155 3155 3158 3158 3158 3157 3155 3154 3153 3154 3155 3155 3155 3156 3157 3157 3157 3156 3155 3154 3150 3148 3147 3144 3141 3139 3136 3130 3128 3122 3119
3150 3149 3148 3150 3152 3153 3152 3153 3153 3155 3154 3154 3153 3154 3152 3155 3157 3156 3154 3154 3153 3152 3152 3153 3154 3154 3154 3154 3154 3153 3151 3150 3150 3145 3141 3141 3138 3135 3132 3130 3126 3121 3115 3110
3148 3148 3150 3151 3152 3152 3152 3151 3151 3152 3153 3150 3149 3148 3147 3152 3155 3155 3153 3153 3153 3151 3149 3149 3151 3152 3152 3152 3150 3148 3146 3143 3142 3140 3136 3133 3131 3129 3125 3121 3116 3111 3109 3103
3149 3149 3150 3151 3150 3150 3152 3150 3150 3149 3149 3149 3147 3148 3143 3146 3151 3152 3152 3151 3150 3149 3148 3148 3149 3148 3148 3147 3146 3144 3140 3136 3131 3132 3129 3126 3123 3120 3116 3112 3106 3101 3095 3091
3147 3148 3149 3149 3149 3150 3149 3149 3148 3148 3147 3146 3143 3143 3144 3146 3148 3148 3149 3149 3148 3147 3148 3147 3146 3143 3141 3142 3139 3138 3135 3131 3126 3120 3120 3117 3114 3110 3105 3100 3095 3090 3087 3083
3149 3150 3149 3149 3149 3150 3151 3149 3146 3147 3143 3142 3140 3140 3141 3144 3147 3146 3146 3146 3146 3146 3146 3145 3142 3140 3137 3134 3132 3131 3129 3127 3123 3118 3113 3108 3104 3100 3096 3091 3086 3082 3078 3073
3147 3151 3151 3150 3150 3151 3151 3151 3150 3150 3147 3145 3144 3141 3142 3142 3143 3145 3144 3144 3144 3144 3143 3141 3138 3135 3133 3130 3128 3126 3124 3121 3117 3112 3106 3101 3097 3091 3086 3081 3075 3071 3066 3060
3147 3149 3149 3149 3149 3151 3151 3151 3152 3151 3150 3149 3143 3141 3143 3143 3143 3143 3144 3144 3143 3142 3140 3139 3136 3132 3128 3126 3124 3120 3116 3113 3108 3103 3097 3092 3089 3083 3078 3072 3066 3061 3056 3051
3147 3149 3150 3150 3149 3151 3152 3152 3152 3152 3152 3148 3140 3142 3144 3145 3145 3144 3144 3143 3140 3138 3137 3136 3132 3128 3124 3120 3117 3112 3107 3104 3099 3093 3088 3084 3079 3073 3068 3063 3057 3053 3047 3041
3146 3149 3153 3150 3152 3152 3152 3152 3152 3152 3151 3150 3149 3146 3146 3146 3145 3145 3143 3142 3138 3135 3133 3131 3127 3124 3119 3116 3111 3106 3100 3094 3089 3084 3080 3075 3070 3065 3060 3054 3049 3042 3035 3029
3146 3149 3150 3152 3151 3150 3150 3151 3151 3151 3151 3149 3148 3145 3144 3143 3142 3141 3139 3136 3135 3132 3130 3126 3121 3116 3114 3109 3105 3098 3091 3085 3080 3076 3072 3067 3061 3056 3052 3045 3039 3033 3025 3018
3146 3149 3149 3150 3152 3150 3150 3151 3150 3149 3147 3147 3149 3145 3143 3139 3138 3136 3135 3132 3130 3127 3126 3121 3115 3112 3108 3103 3097 3089 3081 3077 3073 3068 3063 3058 3051 3048 3043 3036 3029 3023 3016 3011
3146 3147 3149 3151 3150 3150 3149 3148 3147 3146 3143 3142 3142 3141 3140 3138 3133 3132 3132 3130 3128 3125 3119 3114 3110 3105 3099 3094 3088 3080 3073 3070 3065 3060 3054 3049 3042 3040 3033 3026 3020 3014 3008 3002
3145 3146 3148 3147 3147 3146 3146 3144 3142 3141 3139 3138 3137 3136 3137 3133 3133 3131 3124 3121 3119 3116 3114 3110 3105 3099 3092 3086 3077 3072 3067 3062 3056 3051 3046 3041 3032 3028 3022 3016 3009 3004 2998 2992
3142 3143 3143 3143 3143 3142 3139 3136 3135 3136 3134 3132 3132 3133 3132 3132 3126 3122 3119 3117 3114 3109 3107 3101 3096 3089 3083 3076 3070 3065 3058 3052 3049 3043 3036 3030 3022 3016 3012 3006 3001 2995 2990 2985
3141 3141 3140 3139 3139 3136 3134 3134 3134 3132 3132 3131 3130 3130 3128 3123 3118 3117 3112 3111 3107 3102 3097 3091 3086 3079 3072 3066 3061 3056 3051 3045 3040 3035 3029 3024 3015 3008 3006 2999 2993 2988 2983 2978
3137 3138 3139 3137 3137 3136 3132 3130 3128 3127 3128 3126 3126 3126 3120 3117 3114 3110 3108 3105 3100 3094 3089 3084 3077 3071 3065 3061 3056 3051 3045 3038 3033 3027 3020 3015 3005 3001 2998 2991 2987 2982 2977 2972
3135 3135 3136 3136 3135 3132 3128 3126 3125 3124 3123 3123 3121 3116 3113 3112 3111 3109 3102 3096 3091 3085 3080 3073 3068 3066 3062 3057 3051 3047 3041 3033 3025 3019 3011 3005 2996 2990 2989 2986 2981 2976 2971 2965
3132 3132 3134 3132 3133 3130 3126 3126 3121 3120 3120 3116 3112 3112 3111 3107 3101 3098 3093 3089 3084 3080 3075 3070 3067 3063 3057 3052 3045 3038 3032 3026 3020 3011 3000 2998 2993 2987 2982 2978 2974 2970 2964 2958
3129 3128 3128 3129 3129 3124 3121 3120 3118 3119 3119 3111 3110 3107 3104 3100 3096 3090 3085 3082 3077 3072 3070 3066 3061 3056 3049 3042 3035 3027 3023 3018 3010 3005 2994 2988 2987 2982 2975 2971 2967 2963 2958 2952
3125 3125 3124 3124 3125 3121 3117 3115 3115 3114 3111 3105 3102 3098 3095 3092 3087 3083 3079 3074 3071 3067 3062 3058 3051 3045 3037 3032 3027 3019 3013 3008 3000 2994 2988 2982 2977 2972 2968 2964 2961 2956 2952 2948
3123 3120 3120 3119 3118 3116 3113 3105 3105 3104 3101 3098 3095 3092 3089 3084 3080 3076 3071 3068 3064 3059 3053 3047 3041 3035 3029 3022 3018 3010 3004 2996 2989 2985 2980 2974 2971 2966 2963 2959 2955 2950 2947 2943
3117 3117 3115 3114 3112 3112 3106 3101 3100 3097 3094 3092 3088 3083 3080 3076 3072 3069 3066 3062 3057 3052 3045 3038 3031 3025 3019 3015 3009 3003 2994 2986 2981 2975 2971 2967 2963 2959 2956 2954 2949 2946 2942 2939
3111 3110 3107 3105 3105 3105 3096 3095 3093 3089 3086 3083 3080 3077 3074 3071 3068 3064 3059 3054 3049 3042 3037 3031 3023 3017 3011 3005 2998 2992 2984 2979 2973 2967 2963 2960 2956 2952 2950 2947 2944 2942 2938 2934
3103 3101 3100 3096 3094 3093 3091 3088 3085 3083 3079 3076 3074 3071 3068 3065 3060 3056 3052 3046 3039 3033 3027 3021 3016 3009 3003 2996 2990 2983 2976 2972 2967 2962 2958 2954 2950 2947 2945 2942 2941 2938 2935 2930